Location: Oriwa
(40.7500°S, 175.3333°E)
Time: 13:16:52
(UTC+00:00)

Meteor 2-15 Rocket - Pass Details

Date: 03 February 2023
Orbit: 940 x 955 km, 82.5° (Epoch: 30 March)

Event Time Altitude Azimuth Distance (km) Brightness Sun altitude
Exits shadow 16:27:19 - 348° (NNW) 3,405 6.9 -11.1°
Reaches altitude 10° 16:29:14 10° 347° (NNW) 2,684 6.4 -10.8°
Maximum altitude 16:35:23 74° 262° (W) 1,004 4.5 -9.8°
Drops below altitude 10° 16:41:37 10° 176° (S) 2,716 7.4 -8.8°
Sets 16:44:09 0° 173° (S) 3,667 8.1 -8.4°
